| time (UTC) | temp F | wind direction | speed knots | gust knots | rain 1hr in | rain 24hr in | rain mn in | humidity % | barometer mb |
| 20260506175806 | 58 | 204 | 12.2 | 19.1 | 0.00 | 0.00 | 0.00 | 89 | 1008.4 |
| 20260506175306 | 58 | 218 | 12.2 | 18.2 | 0.00 | 0.00 | 0.00 | 89 | 1008.6 |
| 20260506174805 | 58 | 191 | 10.4 | 20.9 | 0.00 | 0.00 | 0.00 | 89 | 1008.8 |
| 20260506174305 | 58 | 203 | 12.2 | 21.7 | 0.00 | 0.00 | 0.00 | 89 | 1008.8 |
| 20260506172307 | 59 | 202 | 12.2 | 19.1 | 0.00 | 0.00 | 0.00 | 86 | 1008.8 |
| 20260506170806 | 59 | 205 | 8.7 | 21.7 | 0.00 | 0.00 | 0.00 | 87 | 1009.0 |
| 20260506170305 | 58 | 199 | 11.3 | 19.1 | 0.00 | 0.00 | 0.00 | 88 | 1009.1 |
| 20260506165306 | 58 | 195 | 12.2 | 17.4 | 0.00 | 0.00 | 0.00 | 87 | 1009.4 |
| 20260506164305 | 59 | 199 | 11.3 | 20.0 | 0.00 | 0.00 | 0.00 | 87 | 1009.6 |
| 20260506163306 | 59 | 193 | 12.2 | 19.1 | 0.00 | 0.00 | 0.00 | 88 | 1009.7 |
| 20260506162307 | 58 | 209 | 9.6 | 19.1 | 0.00 | 0.00 | 0.00 | 89 | 1009.9 |
| 20260506155805 | 57 | 201 | 11.3 | 17.4 | 0.00 | 0.00 | 0.00 | 89 | 1010.3 |
| 20260506154807 | 57 | 196 | 8.7 | 15.6 | 0.00 | 0.00 | 0.00 | 88 | 1010.1 |
| 20260506154306 | 57 | 198 | 7.0 | 13.9 | 0.00 | 0.00 | 0.00 | 88 | 1010.3 |
| 20260506153805 | 57 | 200 | 10.4 | 19.1 | 0.00 | 0.00 | 0.00 | 88 | 1010.3 |
| 20260506152806 | 58 | 202 | 8.7 | 19.1 | 0.00 | 0.00 | 0.00 | 87 | 1010.3 |
| 20260506152306 | 58 | 203 | 10.4 | 18.2 | 0.00 | 0.00 | 0.00 | 87 | 1010.3 |
| 20260506151806 | 58 | 205 | 10.4 | 19.1 | 0.00 | 0.00 | 0.00 | 88 | 1010.4 |
| 20260506145306 | 58 | 197 | 11.3 | 20.0 | 0.00 | 0.00 | 0.00 | 86 | 1010.6 |
| 20260506144805 | 59 | 199 | 10.4 | 19.1 | 0.00 | 0.00 | 0.00 | 85 | 1010.5 |
| 20260506142306 | 58 | 211 | 10.4 | 18.2 | 0.00 | 0.00 | 0.00 | 87 | 1010.7 |
| 20260506141805 | 58 | 210 | 10.4 | 14.8 | 0.00 | 0.00 | 0.00 | 87 | 1010.6 |
| 20260506141305 | 58 | 193 | 10.4 | 17.4 | 0.00 | 0.00 | 0.00 | 87 | 1010.5 |
| 20260506140805 | 58 | 191 | 10.4 | 19.1 | 0.00 | 0.00 | 0.00 | 87 | 1010.5 |
| 20260506135806 | 59 | 189 | 11.3 | 18.2 | 0.00 | 0.00 | 0.00 | 86 | 1010.5 |
| 20260506134805 | 59 | 212 | 11.3 | 20.0 | 0.00 | 0.00 | 0.00 | 86 | 1010.6 |
| 20260506134306 | 59 | 212 | 11.3 | 19.1 | 0.00 | 0.00 | 0.00 | 86 | 1010.8 |
| 20260506133805 | 59 | 190 | 13.9 | 20.9 | 0.00 | 0.00 | 0.00 | 86 | 1010.7 |
| 20260506132307 | 60 | 202 | 13.9 | 22.6 | 0.00 | 0.00 | 0.00 | 85 | 1010.9 |
| 20260506130805 | 59 | 202 | 14.8 | 25.2 | 0.00 | 0.00 | 0.00 | 86 | 1010.8 |
| 20260506125306 | 60 | 203 | 11.3 | 21.7 | 0.00 | 0.00 | 0.00 | 86 | 1010.9 |
| 20260506124305 | 60 | 214 | 11.3 | 20.9 | 0.00 | 0.00 | 0.00 | 87 | 1010.8 |
| 20260506123805 | 59 | 187 | 10.4 | 19.1 | 0.00 | 0.00 | 0.00 | 86 | 1010.7 |
| 20260506123306 | 60 | 206 | 12.2 | 17.4 | 0.00 | 0.00 | 0.00 | 86 | 1010.7 |
| 20260506122306 | 59 | 194 | 11.3 | 20.9 | 0.00 | 0.00 | 0.00 | 88 | 1010.8 |
| 20260506121805 | 59 | 205 | 12.2 | 21.7 | 0.00 | 0.00 | 0.00 | 88 | 1010.7 |
| 20260506120807 | 59 | 204 | 11.3 | 18.2 | 0.00 | 0.00 | 0.00 | 88 | 1010.6 |
| 20260506120305 | 59 | 217 | 11.3 | 20.0 | 0.00 | 0.00 | 0.00 | 88 | 1010.7 |
| 20260506114805 | 58 | 213 | 11.3 | 24.3 | 0.00 | 0.00 | 0.00 | 89 | 1010.9 |
| 20260506114305 | 58 | 195 | 12.2 | 24.3 | 0.00 | 0.00 | 0.00 | 89 | 1010.9 |
| 20260506113806 | 58 | 211 | 12.2 | 22.6 | 0.00 | 0.00 | 0.00 | 89 | 1010.9 |
| 20260506113306 | 58 | 206 | 10.4 | 19.1 | 0.00 | 0.00 | 0.00 | 90 | 1010.9 |
| 20260506112805 | 58 | 205 | 12.2 | 22.6 | 0.00 | 0.00 | 0.00 | 90 | 1010.9 |
| 20260506112306 | 58 | 208 | 13.0 | 22.6 | 0.00 | 0.00 | 0.00 | 90 | 1010.9 |
| 20260506111805 | 57 | 200 | 10.4 | 21.7 | 0.00 | 0.00 | 0.00 | 91 | 1010.9 |
| 20260506110805 | 57 | 208 | 11.3 | 17.4 | 0.00 | 0.00 | 0.00 | 91 | 1010.8 |
| 20260506110306 | 57 | 208 | 9.6 | 17.4 | 0.00 | 0.00 | 0.00 | 91 | 1010.8 |
| 20260506103305 | 57 | 210 | 10.4 | 18.2 | 0.00 | 0.00 | 0.00 | 92 | 1010.7 |
| 20260506102805 | 57 | 210 | 10.4 | 22.6 | 0.00 | 0.00 | 0.00 | 92 | 1010.7 |
| 20260506102306 | 57 | 214 | 12.2 | 19.1 | 0.00 | 0.00 | 0.00 | 92 | 1010.8 |
| 20260506101805 | 56 | 204 | 11.3 | 17.4 | 0.00 | 0.00 | 0.00 | 92 | 1010.6 |
| 20260506100805 | 56 | 201 | 11.3 | 17.4 | 0.00 | 0.00 | 0.00 | 93 | 1010.6 |
| 20260506094805 | 56 | 211 | 10.4 | 17.4 | 0.00 | 0.00 | 0.00 | 93 | 1010.5 |
| 20260506093305 | 56 | 209 | 10.4 | 17.4 | 0.00 | 0.00 | 0.00 | 92 | 1010.6 |
| 20260506092805 | 56 | 203 | 12.2 | 17.4 | 0.00 | 0.00 | 0.00 | 92 | 1010.7 |
| 20260506091806 | 56 | 212 | 11.3 | 18.2 | 0.00 | 0.00 | 0.00 | 92 | 1010.8 |
| 20260506090306 | 56 | 201 | 10.4 | 17.4 | 0.00 | 0.00 | 0.00 | 92 | 1010.9 |
| 20260506082305 | 57 | 203 | 12.2 | 18.2 | 0.00 | 0.00 | 0.00 | 91 | 1010.9 |
| 20260506081305 | 57 | 213 | 11.3 | 18.2 | 0.00 | 0.00 | 0.00 | 91 | 1011.0 |
| 20260506080805 | 56 | 209 | 9.6 | 17.4 | 0.00 | 0.00 | 0.00 | 91 | 1011.0 |
| 20260506080305 | 57 | 218 | 12.2 | 18.2 | 0.00 | 0.00 | 0.00 | 91 | 1011.0 |
| 20260506073305 | 58 | 213 | 13.9 | 26.1 | 0.00 | 0.00 | 0.00 | 89 | 1011.2 |
| 20260506072805 | 58 | 207 | 13.9 | 22.6 | 0.00 | 0.00 | 0.00 | 89 | 1011.3 |
| 20260506070806 | 58 | 204 | 13.0 | 18.2 | 0.00 | 0.00 | 0.00 | 89 | 1011.2 |
| 20260506070306 | 58 | 211 | 13.0 | 22.6 | 0.00 | 0.00 | 0.00 | 89 | 1011.3 |
| 20260506061306 | 59 | 204 | 14.8 | 21.7 | 0.00 | 0.00 | 0.00 | 86 | 1011.2 |
| 20260506060805 | 59 | 213 | 13.0 | 20.0 | 0.00 | 0.00 | 0.00 | 86 | 1011.2 |
| 20260506060306 | 59 | 207 | 11.3 | 17.4 | 0.00 | 0.00 | 0.00 | 86 | 1011.2 |
| 20260506050305 | 58 | 209 | 13.0 | 20.9 | 0.00 | 0.00 | 0.00 | 86 | 1011.8 |
| 20260506044305 | 58 | 215 | 12.2 | 18.2 | 0.00 | 0.00 | 0.00 | 87 | 1011.7 |
| 20260506042305 | 57 | 204 | 11.3 | 19.1 | 0.00 | 0.00 | 0.00 | 87 | 1011.8 |
| 20260506040839 | 57 | 212 | 12.2 | 22.6 | 0.00 | 0.00 | 0.00 | 87 | 1011.8 |
| 20260506035808 | 57 | 212 | 10.4 | 17.4 | 0.00 | 0.00 | 0.00 | 87 | 1011.8 |
| 20260506035306 | 57 | 202 | 10.4 | 20.0 | 0.00 | 0.00 | 0.00 | 87 | 1011.9 |
| 20260506034806 | 57 | 224 | 8.7 | 17.4 | 0.00 | 0.00 | 0.00 | 87 | 1011.9 |
| 20260506034305 | 57 | 206 | 10.4 | 17.4 | 0.00 | 0.00 | 0.00 | 87 | 1011.9 |
| 20260506033805 | 57 | 203 | 9.6 | 17.4 | 0.00 | 0.00 | 0.00 | 86 | 1011.9 |
| 20260506033306 | 57 | 209 | 8.7 | 15.6 | 0.00 | 0.00 | 0.00 | 86 | 1011.9 |
| 20260506032804 | 57 | 212 | 10.4 | 19.1 | 0.00 | 0.00 | 0.00 | 86 | 1011.9 |
| 20260506030805 | 57 | 215 | 12.2 | 18.2 | 0.00 | 0.00 | 0.00 | 85 | 1012.0 |
| 20260506030307 | 58 | 201 | 12.2 | 20.0 | 0.00 | 0.00 | 0.00 | 85 | 1012.0 |
| 20260506024305 | 59 | 211 | 14.8 | 22.6 | 0.00 | 0.00 | 0.00 | 84 | 1012.0 |
| 20260506023305 | 59 | 205 | 11.3 | 21.7 | 0.00 | 0.00 | 0.00 | 83 | 1012.1 |
| 20260506021805 | 59 | 214 | 13.9 | 22.6 | 0.00 | 0.00 | 0.00 | 82 | 1012.1 |
| 20260506021305 | 59 | 202 | 13.9 | 21.7 | 0.00 | 0.00 | 0.00 | 82 | 1012.1 |
| 20260506020805 | 59 | 199 | 14.8 | 21.7 | 0.00 | 0.00 | 0.00 | 83 | 1012.1 |
| 20260506020305 | 59 | 215 | 12.2 | 20.9 | 0.00 | 0.00 | 0.00 | 83 | 1012.0 |
| 20260506015306 | 59 | 205 | 13.0 | 22.6 | 0.00 | 0.00 | 0.00 | 82 | 1011.9 |
| 20260506014807 | 59 | 206 | 13.9 | 20.9 | 0.00 | 0.00 | 0.00 | 82 | 1012.0 |
| 20260506014305 | 59 | 230 | 11.3 | 18.2 | 0.00 | 0.00 | 0.00 | 83 | 1012.0 |
| 20260506013806 | 59 | 200 | 11.3 | 20.0 | 0.00 | 0.00 | 0.00 | 83 | 1011.9 |
| 20260506013305 | 59 | 221 | 10.4 | 17.4 | 0.00 | 0.00 | 0.00 | 83 | 1011.9 |
| 20260506012307 | 59 | 216 | 11.3 | 18.2 | 0.00 | 0.00 | 0.00 | 83 | 1011.9 |
| 20260506011305 | 59 | 206 | 14.8 | 21.7 | 0.00 | 0.00 | 0.00 | 84 | 1011.8 |
| 20260506010805 | 59 | 210 | 11.3 | 20.0 | 0.00 | 0.00 | 0.00 | 83 | 1011.7 |
| 20260506005805 | 59 | 217 | 10.4 | 18.2 | 0.00 | 0.00 | 0.00 | 83 | 1011.5 |
| 20260506004305 | 59 | 197 | 13.9 | 20.0 | 0.00 | 0.00 | 0.00 | 82 | 1011.4 |
| 20260506003804 | 60 | 204 | 12.2 | 25.2 | 0.00 | 0.00 | 0.00 | 82 | 1011.4 |
| 20260506003305 | 59 | 206 | 13.9 | 22.6 | 0.00 | 0.00 | 0.00 | 82 | 1011.5 |
| 20260506002805 | 59 | 200 | 13.9 | 20.9 | 0.00 | 0.00 | 0.00 | 82 | 1011.5 |
| 20260506001304 | 59 | 186 | 13.9 | 18.2 | 0.00 | 0.00 | 0.00 | 82 | 1011.2 |
| 20260506000804 | 59 | 211 | 11.3 | 21.7 | 0.00 | 0.00 | 0.00 | 81 | 1011.3 |
| 20260505235305 | 59 | 216 | 11.3 | 21.7 | 0.00 | 0.00 | 0.00 | 81 | 1011.1 |
| 20260505234305 | 60 | 228 | 11.3 | 20.0 | 0.00 | 0.00 | 0.00 | 79 | 1011.1 |
| 20260505233805 | 60 | 194 | 13.9 | 27.8 | 0.00 | 0.00 | 0.00 | 79 | 1011.1 |
| 20260505231804 | 61 | 208 | 11.3 | 19.1 | 0.00 | 0.00 | 0.00 | 76 | 1011.0 |
| 20260505230305 | 61 | 206 | 12.2 | 20.9 | 0.00 | 0.00 | 0.00 | 77 | 1010.9 |
| 20260505225306 | 61 | 210 | 13.0 | 20.0 | 0.00 | 0.00 | 0.00 | 77 | 1010.5 |
| 20260505224804 | 61 | 201 | 13.0 | 21.7 | 0.00 | 0.00 | 0.00 | 77 | 1010.6 |
| 20260505224305 | 61 | 203 | 13.0 | 25.2 | 0.00 | 0.00 | 0.00 | 76 | 1010.5 |
| 20260505222306 | 63 | 208 | 11.3 | 18.2 | 0.00 | 0.00 | 0.00 | 74 | 1010.5 |
| 20260505220805 | 63 | 205 | 7.0 | 17.4 | 0.00 | 0.00 | 0.00 | 74 | 1010.5 |
| 20260505214805 | 62 | 204 | 13.9 | 27.8 | 0.00 | 0.00 | 0.00 | 75 | 1010.3 |
| 20260505205804 | 62 | 219 | 14.8 | 21.7 | 0.00 | 0.00 | 0.00 | 75 | 1009.9 |
| 20260505205305 | 62 | 183 | 14.8 | 25.2 | 0.00 | 0.00 | 0.00 | 76 | 1009.9 |
| 20260505204804 | 62 | 195 | 13.9 | 20.0 | 0.00 | 0.00 | 0.00 | 76 | 1009.9 |
| 20260505204304 | 62 | 208 | 12.2 | 22.6 | 0.00 | 0.00 | 0.00 | 76 | 1009.9 |
| 20260505202804 | 61 | 203 | 10.4 | 20.0 | 0.00 | 0.00 | 0.00 | 78 | 1009.9 |
| 20260505202306 | 61 | 219 | 10.4 | 20.9 | 0.00 | 0.00 | 0.00 | 79 | 1009.9 |
| 20260505201804 | 60 | 192 | 12.2 | 20.9 | 0.00 | 0.00 | 0.00 | 78 | 1009.9 |
| 20260505200305 | 60 | 210 | 12.2 | 20.0 | 0.00 | 0.00 | 0.00 | 79 | 1009.9 |
| 20260505195305 | 60 | 197 | 13.9 | 18.2 | 0.00 | 0.00 | 0.00 | 79 | 1010.1 |
| 20260505194304 | 60 | 201 | 14.8 | 22.6 | 0.00 | 0.00 | 0.00 | 78 | 1010.2 |
| 20260505193804 | 61 | 215 | 13.0 | 20.0 | 0.00 | 0.00 | 0.00 | 78 | 1010.2 |
| 20260505193304 | 61 | 211 | 11.3 | 20.9 | 0.00 | 0.00 | 0.00 | 78 | 1010.3 |
| 20260505192805 | 61 | 210 | 13.9 | 21.7 | 0.00 | 0.00 | 0.00 | 78 | 1010.5 |
| 20260505192305 | 61 | 211 | 8.7 | 17.4 | 0.00 | 0.00 | 0.00 | 79 | 1010.6 |
| 20260505191805 | 60 | 193 | 11.3 | 22.6 | 0.00 | 0.00 | 0.00 | 80 | 1010.6 |
| 20260505190304 | 60 | 193 | 10.4 | 17.4 | 0.00 | 0.00 | 0.00 | 80 | 1010.6 |
| 20260505185804 | 60 | 195 | 12.2 | 19.1 | 0.00 | 0.00 | 0.00 | 80 | 1010.6 |
| 20260505184805 | 59 | 192 | 10.4 | 18.2 | 0.00 | 0.00 | 0.00 | 79 | 1010.7 |
| 20260505183805 | 60 | 202 | 11.3 | 17.4 | 0.00 | 0.00 | 0.00 | 79 | 1010.7 |
| 20260505182306 | 60 | 201 | 11.3 | 20.9 | 0.00 | 0.00 | 0.00 | 79 | 1010.8 |
| 20260505181305 | 60 | 192 | 10.4 | 17.4 | 0.00 | 0.00 | 0.00 | 79 | 1011.0 |
| 20260505180804 | 60 | 197 | 9.6 | 20.0 | 0.00 | 0.00 | 0.00 | 80 | 1011.0 |